Starlink 2408

operational
NORAD ID: 47823 Int'l Des: 2021-018 Owner: SPXS Country: US Constellation: starlink
LEOCIRCULARSTARLINK_TYPE

About Starlink 2408

Description loading...

Live Position

Loading 3D Globe...

Upcoming Passes

Altitude History

Altitude vs Time

uPlot chart will show altitude changes over time

Two-Line Element Set

1 47823U 21018AN 25303.22865373 .00001757 00000-0 13678-3 0 9993
2 47823 53.0511 117.2717 0001295 90.5491 269.5646 15.06408439256935
Epoch: Oct 30, 2025 • Age: 29 hours

Current Status

Altitude 547.7 km
Velocity 7.59 km/s
Sub-Earth Point 25.62°N, 68.76°E
Launch Date Mar 11, 2021
Age 4.6 years
Type internet

Technical Details

Classification Payload
Mass 260.00 kg
Dry Mass 248.00 kg
Total Mass 260.00 kg
Length 0.20 m
Diameter 2.80 m
Span 9.00 m
Shape Box + pan
Manufacturer SPXS
Bus Type Starlink
Phase Status In Orbit
Owner/State SPXS/US

Large Constellations

Loading constellations...